地球静止运行环境卫星 8星 (GOES 8)

导读 | 豆包AI

GOES 8是美国于1994年4月13日发射的地球静止环境业务卫星,隶属于美国国家海洋和大气管理局(NOAA)的GOES气象卫星系列。作为静止轨道气象卫星,它运行于地球同步轨道,可对美洲及周边海域开展连续气象观测,提供可见光与红外气象数据,支撑天气预报、风暴追踪和灾害监测任务,显著提升了区域气象预警和气候研究能力,是GOES系列发展中承前启后的重要观测节点。

基本信息
目录编号:
23051
目录名称:
GOES 8
国际标识:
1994-022A
轨道中心:
EARTH
卫星名称:
地球静止运行环境卫星 8星
卫星全名:
地球静止运行环境卫星 8星 (GOES 8)
卫星状态:
在轨 (已飞行11695 天)
发射日期:
1994-04-13 UTC
国别 :
美国 (US)
星等 :
--
轨道信息
数据来源 国际轨道数据 AOE轨道数据
星历时间 2026-04-19T11:19:36+0800
1天前
查看轨道信息
2026-04-20T08:00:00+0800
4小时前
查看轨道信息
半长轴 42552.126km 42552.298km
偏心率 0.0006279 0.0006314
轨道倾角 14.380° 14.381°
近地点辐角 31.703° 31.225°
升交点赤经 14.128° 14.123°
平近点角 154.225° 101.415°
近地点 36147.27km 36147.293km
远地点 36200.708km 36201.029km
周期 1455.934分钟 1455.943分钟
每日圈数 0.989056 0.98905
详细信息
卫星平台:
LS-1300
平衡模式:
三轴稳定
覆盖范围:
全球
制造商(研发单位):
劳拉空间系统公司
制造商所在国:
美国
使用方式:
暂无
卫星简介
地球静止环境业务卫星是美国国家海洋和大气管理局(NOAA)与美国国家航空航天局(NASA)共同发展的民用静止轨道气象系列卫星。[1]美国第一代地球静止轨道气象卫星系列。英文缩写为GOES。该卫星已退役。
2D轨道图
3D轨道图
轨道高度分析图
轨道倾角分析图
轨道综合分析图
查看轨道综合分析图